Weather History for Eagle, AK

Change the Weather History Date:

Saturday, June 15, 2013

  Actual Average (PABN) Record (PABN)
Temperature  
Mean Temperature 63 °F -  
Max Temperature 86 °F 57 °F 73 °F (2013)
Min Temperature 42 °F 48 °F 41 °F (2012)
Degree Days  
Heating Degree Days 2    
Growing Degree Days 13 (Base 50)    
Moisture  
Dew Point 38 °F    
Average Humidity 40    
Maximum Humidity 82    
Minimum Humidity 16    
Precipitation  
Precipitation 0.00 in - - ()
Sea Level Pressure  
Sea Level Pressure 30.17 in    
Wind  
Wind Speed 2 mph (ENE)    
Max Wind Speed 9 mph    
Max Gust Speed -    
Visibility 10 miles    
Events      
Averages and records for this station are not official NWS values.
T = Trace of Precipitation, MM = Missing Value Source: NWS Daily Summary

Daily Weather History Graph

Daily Weather History Graph

Search for Another Location

Airport:

Trip Planner

Search our weather history database for the weather conditions in past years. The results will help you decide how hot, cold, wet, or windy it might be!

Date:

Astronomy

Jun. 15, 2013 Rise Set
Actual Time 2:36 AM AKDT 12:15 AM AKDT
Civil Twilight Sun does not rise Sun does not rise
Nautical Twilight Sun does not rise Sun does not rise
Astronomical Twilight Sun does not rise Sun does not rise
Moon 12:28 PM AKDT (6/15) 12:55 AM AKDT (6/15)
Length of Visible Light 24h 00m
Length of Day
21h 39m
Waxing Crescent, 41% of the Moon is Illuminated
Jun 15
Waxing Crescent
Jun 16
First Quarter
Jun 23
Full
Jun 29
Last Quarter
Jul 7
New

Hourly Weather History & Observations

Time (AKDT) Temp. Windchill Dew Point Humidity Pressure Visibility Wind Dir Wind Speed Gust Speed Precip Events Conditions
12:53 AM 50.0 °F - 39.9 °F 68% 30.17 in 10.0 mi Calm Calm - N/A   Clear
1:53 AM 46.9 °F - 39.0 °F 74% 30.19 in 10.0 mi South 3.5 mph - N/A   Clear
2:53 AM 43.0 °F 41.3 °F 37.0 °F 80% 30.20 in 10.0 mi South 3.5 mph - N/A   Clear
3:53 AM 42.1 °F - 37.0 °F 82% 30.21 in 10.0 mi Calm Calm - N/A   Clear
4:53 AM 45.0 °F - 37.9 °F 76% 30.22 in 10.0 mi Calm Calm - N/A   Clear
5:53 AM 53.1 °F - 43.0 °F 69% 30.22 in 10.0 mi Calm Calm - N/A   Clear
6:53 AM 57.9 °F - 44.1 °F 60% 30.23 in 10.0 mi Calm Calm - N/A   Clear
7:53 AM 63.0 °F - 43.0 °F 48% 30.22 in 10.0 mi Calm Calm - N/A   Clear
8:53 AM 71.1 °F - 41.0 °F 34% 30.21 in 10.0 mi Variable 4.6 mph - N/A   Clear
9:53 AM 75.0 °F - 41.0 °F 29% 30.20 in 10.0 mi ESE 8.1 mph - N/A   Clear
10:53 AM 78.1 °F - 42.1 °F 28% 30.19 in 10.0 mi ESE 6.9 mph - N/A   Partly Cloudy
11:53 AM 81.0 °F - 39.9 °F 23% 30.18 in 10.0 mi Calm Calm - N/A   Clear
12:53 PM 82.0 °F - 37.9 °F 21% 30.16 in 10.0 mi Variable 4.6 mph - N/A   Clear
1:53 PM 82.0 °F - 37.0 °F 20% 30.15 in 10.0 mi NNE 6.9 mph - N/A   Clear
2:53 PM 84.9 °F - 36.0 °F 17% 30.14 in 10.0 mi Calm Calm - N/A   Clear
3:53 PM 84.0 °F - 34.0 °F 17% 30.13 in 10.0 mi Variable 4.6 mph - N/A   Clear
4:53 PM 82.0 °F - 32.0 °F 16% 30.13 in 10.0 mi NNE 9.2 mph - N/A   Clear
5:53 PM 82.0 °F - 32.0 °F 16% 30.13 in 10.0 mi North 6.9 mph - N/A   Clear
6:53 PM 82.9 °F - 33.1 °F 17% 30.12 in 10.0 mi NNE 6.9 mph - N/A   Clear
7:53 PM 82.9 °F - 34.0 °F 17% 30.11 in 10.0 mi Calm Calm - N/A   Clear
8:53 PM 78.1 °F - 37.0 °F 23% 30.11 in 10.0 mi Calm Calm - N/A   Clear
9:53 PM 79.0 °F - 39.9 °F 25% 30.11 in 10.0 mi Calm Calm - N/A   Clear
10:53 PM 64.0 °F - 42.1 °F 45% 30.12 in 10.0 mi Calm Calm - N/A   Clear
11:53 PM 57.9 °F - 41.0 °F 53% 30.14 in 10.0 mi Calm Calm - N/A   Clear